Regional Weather Roundup
Issued by NWS

Home | Current Version | Previous Version | Graphics & Text | Print | Product List | Glossary Off
Versions: 1 2 3 4 5 6 7 8 9 10 11 12 13 14 15 16 17 18 19 20 21 22 23 24 25 26 27 28 29 30 31 32 33 34 35 36 37 38 39 40 41 42 43 44 45 46 47 48 49 50

048
ASUS43 KTOP 240559
RWRKS

WEATHER ROUNDUP FOR KANSAS
NATIONAL WEATHER SERVICE GOODLAND KS
100 AM CDT THU AUG 24 2017

NOTE:  "FAIR" INDICATES FEW OR NO CLOUDS BELOW 12,000 FEET WITH NO
SIGNIFICANT WEATHER AND/OR OBSTRUCTIONS TO VISIBILITY.

KSZ001>006-013>018-027>032-041>047-240700-
NORTHWEST KANSAS

CITY           SKY/WX    TMP DP  RH WIND       PRES   REMARKS
GOODLAND       CLEAR     65  62  90 S10       30.05F
6HR MIN TEMP:  65; 6HR MAX TEMP:  82;

HAYS           CLEAR     63  51  65 SE8       30.07R
HILL CITY      PTCLDY    67  49  52 S7        30.05S
6HR MIN TEMP:  66; 6HR MAX TEMP:  85;

RUSSELL        CLEAR     66  51  58 SE12      30.05S
6HR MIN TEMP:  66; 6HR MAX TEMP:  83;

$$

KSZ061>065-074>080-084>089-240700-
SOUTHWEST KANSAS

CITY           SKY/WX    TMP DP  RH WIND       PRES   REMARKS
DODGE CITY     CLEAR     64  52  64 S10       30.08S
6HR MIN TEMP:  64; 6HR MAX TEMP:  84;

ELKHART          N/A     63  64 100 S8          N/A
GARDEN CITY    PTCLDY    63  52  67 SE9       30.07F
6HR MIN TEMP:  63; 6HR MAX TEMP:  81;

GREAT BEND     CLEAR     60  52  74 SE6       30.08R
LIBERAL        CLOUDY    65  63  93 SE7       30.09S
$$

KSZ066>073-081>083-090>101-240700-
SOUTHEAST KANSAS

CITY           SKY/WX    TMP DP  RH WIND       PRES   REMARKS
CHANUTE        CLEAR     62  55  77 CALM      30.06F
6HR MIN TEMP:  62; 6HR MAX TEMP:  78;

COFFEYVILLE    CLEAR     60  57  89 N3        30.04F
6HR MIN TEMP:  59; 6HR MAX TEMP:  78; 6HR PCP: TRACE;

HUTCHINSON     CLEAR     61  54  77 E3        30.07R
6HR MIN TEMP:  60; 6HR MAX TEMP:  80;

MEDICINE LODGE   N/A     66  53  63 E3        30.06S
NEWTON         CLEAR     59  55  87 SE7       30.08S
PARSONS        CLEAR     58  56  93 CALM      30.06F
6HR MIN TEMP:  58; 6HR MAX TEMP:  78; 6HR PCP: TRACE;

WICHITA INTL   CLEAR     64  55  72 SE6       30.06S
6HR MIN TEMP:  64; 6HR MAX TEMP:  81;

WICHITA JABRA  CLEAR     63  57  81 SE3       30.07R
6HR MIN TEMP:  62; 6HR MAX TEMP:  78;

WINFIELD       CLEAR     63  55  75 E5        30.07S
6HR MIN TEMP:  63; 6HR MAX TEMP:  79;

$$

KSZ007>012-019>026-033>040-048>060-102>105-240700-
NORTHEAST KANSAS

CITY           SKY/WX    TMP DP  RH WIND       PRES   REMARKS
CONCORDIA      CLEAR     63  55  75 S12       30.06S
6HR MIN TEMP:  61; 6HR MAX TEMP:  77;

EMPORIA        CLEAR     62  56  80 S3        30.07S
6HR MIN TEMP:  61; 6HR MAX TEMP:  76;

LAWRENCE       CLEAR     60  59  96 CALM      30.06F
6HR MIN TEMP:  60; 6HR MAX TEMP:  77;

MANHATTAN      CLEAR     62  57  83 CALM      30.07R
6HR MIN TEMP:  61; 6HR MAX TEMP:  77;

OLATHE IND     CLEAR     63  58  83 SE5       30.07F
6HR MIN TEMP:  61; 6HR MAX TEMP:  76;

OLATHE EXE     CLEAR     63  59  87 CALM      30.07S
6HR MIN TEMP:  63; 6HR MAX TEMP:  74;

SALINA         CLOUDY    63  54  72 S5        30.07R
6HR MIN TEMP:  63; 6HR MAX TEMP:  85;

TOPEKA BILLARD CLEAR     65  62  90 CALM      30.06S
6HR MIN TEMP:  63; 6HR MAX TEMP:  77;

TOPEKA FORBES  CLEAR     63  60  90 CALM      30.07S
6HR MIN TEMP:  63; 6HR MAX TEMP:  77;

$$




USA.gov is the U.S. government's official web portal to all federal, state and local government web resources and services.